Voltar ao catálogo

ARIANE 1 DEB

AtivoHEO
NORAD 40780·DEBRIS·🇫🇷 France

Lançado Dec 24, 1979 de Guiana Space Centre

Loading…

Próximas Passagens (próximas 24 horas)

TLE

AtualizadoSource: Space-Track

Época: Sep 6, 2026, 03:46 UTC

1 40780U 79104AH  26249.15731022 -.00000054  00000-0  33747-4 0  9992
2 40780  19.2003 206.3584 5912890 170.6790 208.9641  3.90296258333977

Acompanhe ARIANE 1 DEB em tempo real com AllMySat

Download on the App Store